Terug naar catalogus

HIMAWARI 5 AKM

ActiefMEO
NORAD 23524·ROCKET BODY·🇯🇵 Japan

Gelanceerd Mar 18, 1995 vanaf Tanegashima Space Center

Loading…

Volgende Passages (komende 24 uur)

TLE

VersSource: Space-Track

Epoch: Sep 14, 2026, 11:24 UTC

1 23524U 95011D   26257.47539858 -.00000043  00000-0  00000-0 0  9991
2 23524  13.5750 347.5370 0216422  17.3476 328.5053  1.01252001 47989

Volg HIMAWARI 5 AKM in realtime met AllMySat

Download on the App Store